Theta_e
313 316 317 319 325 326 327 326 327 327 328 325 323 318 310 307 309 307 306 304 306 303 304 302 298 295 293 292 292 291 290 289 288 287 287 287 287 286 286 285 285 286 285
314 317 319 320 322 325 326 326 327 327 326 322 320 313 308 307 306 309 306 303 304 302 302 299 295 293 292 292 291 289 288 288 287 287 287 287 286 286 285 285 285 284 284
316 319 322 321 323 324 325 326 325 324 322 317 314 309 306 306 305 304 301 302 302 301 298 295 293 292 291 290 288 288 288 287 287 287 287 286 286 285 285 284 283 283 284
319 318 320 321 323 323 324 324 322 320 317 310 306 304 305 303 299 299 301 300 301 299 295 293 292 290 288 288 288 287 287 287 287 286 286 286 285 285 284 283 283 283 284
317 317 320 321 320 321 320 317 316 309 305 303 306 304 300 300 300 298 300 300 297 294 293 291 289 288 287 287 286 287 287 287 286 286 286 286 285 284 284 283 283 284 284
313 314 315 315 314 316 312 309 307 304 303 304 298 298 300 297 299 300 298 293 293 292 290 289 288 287 286 286 286 286 286 287 287 286 286 285 284 284 283 283 284 284 284
311 307 307 311 309 303 304 302 302 301 299 300 300 299 297 297 298 300 292 292 291 289 288 288 287 286 285 285 285 285 285 286 286 285 285 284 284 283 284 284 284 283 283
304 303 303 304 301 301 301 300 301 301 301 301 298 299 300 301 296 292 291 289 288 288 287 286 285 284 284 284 285 285 285 285 285 285 284 283 283 284 284 284 283 283 283
301 299 298 300 302 302 302 302 303 303 302 300 299 300 296 291 291 290 289 288 287 286 286 285 284 283 283 285 285 285 285 285 284 283 283 283 284 284 283 283 284 283 283
299 299 302 304 304 303 303 303 302 300 300 295 293 291 291 290 288 287 288 287 286 285 284 283 283 282 283 285 285 285 284 283 283 283 283 284 284 284 284 284 284 283 283
300 301 302 303 302 301 300 300 298 296 294 292 290 290 289 287 286 286 285 285 284 284 283 282 282 282 284 284 284 283 283 283 283 283 283 284 284 285 285 285 285 284 284
302 302 303 302 301 299 296 293 293 293 290 290 289 288 287 286 286 285 284 283 282 282 282 282 282 283 283 282 282 281 282 282 282 283 283 284 284 285 285 285 285 285 285
303 300 297 295 295 296 294 292 291 291 290 289 287 286 285 286 285 284 283 281 281 281 282 283 283 283 282 281 280 281 281 282 283 283 283 284 284 285 285 285 285 285 286
298 297 295 296 295 292 290 290 290 289 287 286 286 286 285 284 283 282 282 282 282 282 283 283 283 281 280 280 281 281 282 283 283 283 284 284 285 285 285 285 285 285 285
298 296 295 292 290 290 290 290 289 288 287 286 286 285 283 282 282 282 282 282 283 283 283 282 281 280 280 281 281 283 283 283 283 283 284 284 285 285 285 285 285 285 284
296 292 290 290 290 290 289 288 287 287 286 285 283 282 282 282 282 282 281 282 282 282 281 280 280 280 280 280 282 283 283 284 284 284 285 285 285 285 285 285 284 284 284
293 291 290 290 290 290 288 287 285 285 283 282 282 281 281 281 281 281 281 281 280 280 279 280 280 280 280 281 283 283 284 284 284 285 285 285 285 284 284 284 284 284 285
290 290 290 290 289 287 286 285 285 283 282 282 282 281 281 280 280 280 280 280 279 280 279 280 280 280 281 283 283 283 284 284 285 285 285 285 285 284 284 284 284 284 284
290 290 289 288 286 286 285 284 283 282 282 282 281 281 280 280 280 280 279 279 279 280 280 280 280 281 283 283 283 284 284 285 285 285 285 285 285 285 285 285 285 284 284
289 289 287 286 285 285 284 283 282 282 281 281 281 280 280 280 280 279 279 279 279 280 280 280 282 283 283 284 284 284 285 285 286 286 285 284 285 286 286 286 286 285 285
289 287 286 285 285 284 283 282 281 281 281 280 280 280 279 280 279 279 279 279 280 280 280 282 283 283 284 284 285 285 285 285 286 285 284 285 286 287 286 286 286 285 285
288 286 286 285 284 283 282 281 281 281 280 280 280 279 279 279 279 279 279 279 280 281 282 283 283 284 284 285 285 285 285 286 285 284 285 286 287 286 286 286 286 286 286
287 286 285 284 283 282 281 281 281 280 280 279 279 279 279 279 279 279 279 280 280 281 282 283 283 284 285 285 285 285 285 285 285 285 286 287 287 286 286 286 286 286 286
286 285 284 283 282 281 281 280 280 280 279 279 279 279 279 279 279 279 279 280 281 282 283 283 284 284 285 285 285 286 286 286 284 285 286 287 287 287 286 286 286 286 286
285 285 283 282 281 281 281 280 280 279 279 279 279 279 279 279 279 279 279 280 281 282 283 284 284 285 285 285 286 286 286 286 285 286 286 287 287 287 287 286 286 286 286
285 283 282 281 281 281 280 280 279 279 279 279 279 279 279 279 279 279 279 280 281 282 284 284 285 285 285 286 286 286 286 286 286 286 287 287 287 287 286 286 285 285 285
Wind_Speed
25 28 30 34 39 40 40 37 37 36 40 40 40 40 37 34 30 26 20 17 14 13 12 13 15 16 17 18 19 20 21 23 29 32 32 32 32 32 32 31 30 27 29
27 27 32 33 36 38 36 35 31 34 39 39 42 39 35 33 29 26 19 17 12 12 13 15 16 18 19 19 20 22 23 24 27 32 32 32 33 33 35 34 29 33 28
29 27 33 31 33 33 33 31 33 34 37 39 40 37 35 28 26 22 19 14 12 12 14 16 18 19 19 20 22 23 24 24 26 28 33 32 34 36 37 35 37 34 32
28 30 31 31 32 31 32 33 32 33 36 37 36 32 28 22 21 16 14 11 11 14 15 17 18 19 20 21 22 23 23 23 25 28 30 33 35 37 37 39 38 36 36
23 30 32 32 31 31 33 33 31 31 31 34 31 26 24 22 14 14 11 11 12 13 15 17 17 19 20 20 21 20 20 23 24 26 29 34 36 38 39 37 38 37 39
26 27 28 30 32 32 34 33 31 31 31 26 23 20 16 14 13 12 12 12 12 14 14 16 17 19 20 20 17 17 16 20 23 27 30 34 39 38 35 33 34 38 41
26 29 32 34 33 32 29 25 26 27 26 22 17 15 15 14 11 11 10 12 12 13 15 17 18 20 20 20 20 19 18 21 22 25 32 35 35 32 29 33 35 38 40
23 27 29 28 29 25 24 26 23 22 22 21 22 18 13 12 10 9 9 10 12 14 16 18 19 19 19 18 18 18 20 23 26 30 31 31 28 27 29 33 36 36 38
18 18 22 22 21 22 22 24 26 23 18 15 14 10 5 7 9 10 9 10 13 15 16 16 16 18 17 16 17 20 24 28 29 27 25 23 25 26 27 28 29 32 40
25 26 24 24 26 26 24 21 18 16 14 9 6 5 7 7 8 10 12 14 16 17 16 17 19 19 17 14 18 24 27 28 23 26 27 27 25 25 23 22 26 31 35
22 23 24 25 25 23 20 18 17 13 10 9 7 6 6 6 7 9 11 16 19 20 20 21 20 17 15 18 18 22 22 20 25 27 26 26 26 25 23 23 25 28 32
21 22 21 20 19 17 15 15 11 8 7 5 4 4 5 7 10 12 16 17 17 21 21 20 16 16 18 19 18 17 18 20 22 23 25 27 28 26 25 26 27 27 28
20 21 20 19 16 13 10 8 6 5 4 3 4 6 8 11 14 16 17 16 17 17 17 15 17 20 22 20 19 18 18 18 20 22 26 28 27 27 28 29 29 28 31
17 16 14 12 11 10 8 7 5 4 3 3 6 9 11 14 14 14 14 15 16 15 15 18 21 22 19 18 16 14 14 16 19 22 26 27 26 27 28 28 32 34 37
14 13 12 10 9 8 6 4 2 3 4 6 8 10 10 10 12 12 13 16 16 16 18 21 21 19 17 15 13 13 14 17 19 22 25 26 27 29 30 31 32 35 36
12 12 11 8 7 5 3 2 2 5 8 9 9 10 11 13 11 12 14 13 16 14 18 19 17 15 15 16 15 16 16 18 21 23 23 24 28 31 34 34 33 31 34
6 8 7 6 4 2 2 2 4 6 8 9 10 11 10 10 13 15 15 14 16 16 15 14 14 14 15 15 15 18 20 21 22 22 22 26 29 31 32 32 31 32 35
8 7 5 4 2 2 2 4 7 8 8 9 10 11 11 12 12 13 14 15 14 12 12 13 13 14 14 15 16 19 21 22 20 19 23 27 28 30 31 31 32 33 35
6 5 4 2 1 3 5 7 9 9 10 11 11 11 11 12 12 13 14 15 15 13 13 12 12 13 13 15 17 19 21 21 19 21 24 26 26 29 31 33 35 32 34
5 4 2 1 3 5 8 9 9 10 11 12 12 12 12 13 13 14 14 14 13 13 13 13 12 13 15 16 19 20 20 17 18 21 24 26 30 32 34 37 36 36 36
3 1 2 4 6 8 10 10 10 11 12 12 12 12 11 13 14 14 14 13 12 12 12 12 13 14 16 18 19 20 21 16 18 23 25 29 32 35 35 36 35 35 36
2 3 5 7 9 11 11 11 12 13 13 13 13 12 12 13 13 13 13 12 10 11 12 13 14 16 18 18 20 23 19 16 20 24 25 29 34 36 35 34 34 35 37
4 6 7 9 11 11 11 13 13 13 13 13 13 13 14 13 12 13 12 10 9 10 11 13 15 16 17 18 20 22 18 16 21 24 25 31 35 35 33 34 35 37 37
6 7 9 11 11 12 13 14 14 13 13 13 13 14 14 13 12 13 11 10 10 10 12 14 16 17 18 19 20 20 16 17 20 22 26 31 33 34 33 35 35 36 36
8 10 11 11 12 13 14 14 13 13 13 13 13 13 12 12 12 12 12 12 12 12 12 14 16 17 19 19 20 21 16 16 18 19 24 27 30 32 34 34 35 33 30
9 10 11 12 13 14 13 13 13 13 12 12 12 12 12 13 13 13 12 12 12 12 13 15 16 18 18 19 20 21 16 17 18 20 24 27 28 31 33 30 30 31 30
Wind_Direction
261 251 247 247 239 230 229 234 234 230 222 221 219 212 209 207 212 212 214 228 236 253 273 286 291 291 289 287 289 290 291 293 293 297 302 307 309 309 311 311 311 309 307
262 251 241 240 237 232 227 229 222 228 222 222 214 209 207 207 206 219 217 228 243 262 282 288 290 288 287 289 292 294 295 296 297 302 307 311 313 317 316 315 314 313 312
263 252 241 231 227 224 223 217 215 222 221 215 208 207 203 202 206 207 214 232 248 271 285 289 290 287 289 290 292 294 295 298 300 302 307 311 314 316 318 317 319 317 316
261 245 232 225 216 207 209 208 212 217 215 205 199 196 199 194 202 212 222 238 265 281 286 291 290 289 289 290 292 295 298 298 300 303 307 309 313 315 317 318 318 317 318
234 209 211 204 199 196 198 201 204 204 195 191 196 191 188 192 199 225 243 259 272 283 287 286 287 287 289 291 294 295 294 297 304 307 306 308 309 314 315 317 315 320 317
203 197 193 191 188 188 192 194 194 190 185 180 171 182 187 190 208 235 256 269 286 285 282 286 289 289 288 288 289 291 294 300 304 303 303 304 308 310 313 315 316 317 315
194 181 182 182 180 179 182 174 169 162 159 164 166 178 197 208 227 253 262 278 284 288 291 293 294 293 293 294 295 297 296 296 294 297 296 301 306 312 315 316 313 307 302
167 171 172 171 165 159 157 151 150 156 154 161 181 187 212 237 266 270 273 285 291 295 297 300 300 300 300 301 306 309 299 296 296 297 302 306 308 313 310 303 299 300 299
151 150 142 143 142 148 152 150 157 158 164 175 198 204 220 243 263 279 288 293 298 302 304 305 305 307 308 316 311 299 296 296 300 303 299 297 300 303 303 299 301 305 306
143 151 150 144 135 136 145 146 150 163 162 160 182 211 234 253 275 293 301 307 307 309 310 309 312 313 316 316 304 301 298 301 312 306 308 307 306 306 303 301 307 307 308
137 135 132 131 134 137 144 148 152 143 153 185 202 220 242 255 273 298 310 311 312 312 313 311 312 314 317 303 299 293 299 312 297 301 307 310 311 311 310 309 309 307 306
130 129 127 127 130 133 134 139 153 152 166 184 208 244 262 278 292 298 299 300 298 301 306 311 318 320 304 306 307 306 306 300 306 310 312 314 317 316 313 313 313 308 304
128 124 122 122 125 127 133 145 148 162 184 216 236 250 276 293 294 294 295 296 301 306 315 316 302 305 312 312 310 309 307 309 311 313 315 319 320 318 317 317 316 316 311
116 117 123 131 133 135 145 154 158 163 191 240 278 285 289 293 294 298 303 307 315 321 319 309 311 310 308 310 310 310 310 315 321 320 319 321 321 322 323 325 323 323 319
135 135 137 138 141 147 151 148 172 231 262 281 289 295 298 305 312 314 318 321 329 320 293 300 306 311 315 318 321 321 322 323 323 324 324 326 327 327 327 328 327 326 322
137 142 145 140 134 142 160 193 256 279 289 300 312 317 318 322 325 315 318 322 295 301 300 309 313 316 320 325 327 327 328 328 329 329 329 331 332 331 330 332 331 329 328
143 143 146 154 161 180 219 260 289 307 317 317 315 308 302 299 305 310 314 309 309 308 310 313 316 320 324 326 327 328 331 334 332 332 333 336 336 334 333 333 336 335 331
165 165 163 165 180 227 283 311 317 314 307 303 303 306 310 310 309 314 316 314 313 312 316 320 323 325 326 326 327 330 332 332 333 335 339 338 337 337 338 339 337 334 334
164 158 167 192 245 315 322 318 313 309 309 311 316 319 315 311 315 318 318 318 322 326 326 327 327 325 325 326 329 329 330 332 336 338 338 338 344 343 340 340 338 336 335
167 175 184 289 313 313 312 311 311 310 315 318 320 323 319 316 320 320 321 322 324 326 327 329 329 328 329 328 328 328 330 332 335 337 338 343 345 342 342 340 339 336 336
182 221 289 295 304 309 314 315 314 317 319 320 321 321 318 312 314 317 322 322 324 327 327 330 333 333 330 327 327 328 331 331 333 336 340 342 343 342 343 342 341 342 340
258 283 294 305 313 317 316 317 320 319 318 318 317 315 312 311 310 315 318 319 320 322 324 329 334 333 330 329 330 329 329 330 333 335 337 340 345 345 345 343 343 342 343
273 290 307 314 315 317 319 320 319 318 317 315 315 314 313 311 310 315 316 313 311 312 315 322 326 328 330 332 331 326 322 328 332 335 337 342 345 343 339 336 335 337 339
289 306 312 315 317 319 320 320 320 317 315 315 313 311 311 309 310 313 311 305 302 302 307 315 321 325 330 331 330 330 320 322 328 336 341 339 336 331 333 333 335 335 335
301 308 314 317 318 319 321 322 320 318 318 315 314 312 311 308 309 310 305 300 299 302 307 313 319 322 327 329 328 330 321 319 328 332 334 330 330 334 334 335 337 333 336
302 310 316 319 321 322 323 323 322 319 317 316 314 311 311 309 310 309 304 301 303 306 311 315 318 320 322 323 324 331 320 319 324 337 331 330 334 335 336 336 340 341 341